Vertical_Velocity
-0 -0 -0 1 1 2 2 1 0 -1 -2 -4 -4 6 19 26 17 8 3 4 18 26 25 12 3 -1 -1 0 2 2 2 2 2 1 1 0 2 4 5 4 3 2 1 0 0 -0 -1 -2 -2 -2 -1 -0 -0 -0 1 2 1 1 3 8 3 -0 -1 -1 -1 -3 -3 -2 1
0 0 1 1 2 2 2 1 -0 -1 -2 -2 3 15 24 26 20 10 3 2 2 3 6 13 6 1 -2 -1 1 2 2 2 2 2 1 1 3 5 5 4 2 1 1 0 0 -0 -2 -2 -2 -2 -1 -1 -1 -1 -0 1 2 2 4 4 2 -0 -1 -0 -1 -2 -2 -1 1
0 1 1 1 2 2 2 -0 -2 -3 -2 -1 8 17 23 24 18 9 1 -3 1 0 1 9 9 4 -1 -1 1 2 2 1 2 2 2 2 4 5 5 4 2 1 1 0 0 -0 -1 -2 -3 -3 -3 -4 -4 -3 -1 1 3 5 5 3 1 0 0 -0 -1 -2 -2 -1 1
1 1 1 2 3 3 2 -2 -3 -4 -2 2 10 16 18 15 11 7 5 7 12 11 10 13 11 6 1 -0 1 2 2 1 1 2 2 3 4 5 4 3 2 1 0 -0 0 -0 -1 -2 -4 -5 -6 -5 -4 -2 -0 1 3 5 6 4 2 1 1 -0 -1 -1 -1 0 1
1 1 2 2 2 3 2 -3 -3 -2 1 10 21 19 11 3 6 6 9 17 25 26 23 17 13 9 4 0 1 2 2 1 1 2 3 4 4 4 4 3 2 1 0 -0 -0 -0 -1 -3 -5 -5 -3 0 3 3 3 1 2 4 4 2 3 4 2 -0 -1 -0 1 1 2
0 1 1 1 1 0 0 0 0 2 7 21 30 23 11 5 7 4 1 1 15 27 32 23 13 10 8 5 2 1 1 0 1 2 3 4 4 4 3 2 1 1 0 -0 0 0 -0 -2 -5 -3 1 5 7 7 5 2 3 3 2 -2 1 4 4 -0 0 1 2 2 2
-0 -0 -0 -0 -0 -0 1 6 4 6 12 24 29 24 16 14 6 1 -3 -4 0 16 29 28 12 9 13 14 2 -1 -1 -0 1 3 4 5 5 4 3 2 1 0 -0 0 1 1 0 -1 -5 -2 2 6 8 7 6 3 4 4 2 -3 -2 0 2 0 1 2 2 2 2
-2 -2 -1 -0 0 1 3 6 4 4 9 15 16 20 24 23 11 6 8 12 2 8 20 27 15 10 10 12 0 -4 -2 -0 2 4 5 6 5 4 2 1 1 0 0 1 0 0 -0 -1 -4 -3 1 5 7 6 5 6 5 6 5 1 -3 -3 -1 1 2 3 2 2 2
-2 -2 -1 -0 0 1 2 0 -1 -1 -1 1 5 18 29 26 19 15 14 15 2 4 12 22 16 9 7 16 8 2 -1 1 3 4 6 6 5 3 1 0 0 -0 -0 0 -1 -1 -1 -1 -3 -2 0 3 4 4 5 7 4 6 7 4 -4 -6 -3 3 3 3 2 1 1
-2 -1 -0 -1 -2 -2 -3 -4 -4 -4 -3 1 13 23 26 20 16 14 11 7 2 3 9 16 10 5 6 18 19 10 1 2 4 5 6 5 4 2 1 -0 -0 -0 -0 -0 2 1 -0 -2 -3 -2 -0 1 2 4 5 4 4 6 7 3 -5 -6 -2 4 4 3 2 1 1
-1 -0 -1 -4 -5 -2 3 10 8 4 4 10 19 20 16 10 8 7 6 5 6 5 4 5 6 5 6 10 17 12 4 4 5 5 5 4 3 1 0 -1 -1 -0 -0 -1 2 3 1 -1 -2 -1 -0 0 3 4 5 4 5 5 4 2 -6 -6 -1 4 4 3 2 1 1
-0 -0 -2 -4 2 11 20 25 17 10 8 12 13 10 6 3 4 5 6 7 8 4 -0 -1 5 8 9 6 8 7 4 4 4 4 4 3 2 1 -1 -1 -1 -0 -0 -1 1 2 2 2 2 2 2 2 4 5 6 7 4 3 2 1 -7 -6 -0 4 3 2 2 1 1
1 -0 1 8 19 26 27 21 14 11 11 12 9 5 2 2 4 6 9 13 10 5 -0 -1 4 9 11 7 4 3 4 4 3 3 2 2 0 -1 -1 -1 -1 -0 -0 -2 0 1 2 4 6 6 5 4 5 7 9 8 3 2 2 -2 -7 -4 1 4 3 2 2 1 1
2 2 9 27 30 28 22 14 11 12 14 12 8 5 5 7 5 5 10 18 12 4 -0 3 8 12 13 8 4 2 2 2 2 2 1 -1 -2 -3 -2 -2 -1 -1 -1 -2 -0 1 3 6 7 7 6 7 10 12 11 4 2 2 1 -3 -4 -1 2 3 2 2 1 1 1
3 4 11 28 24 20 16 14 11 12 14 10 7 11 15 16 5 3 8 19 12 4 1 8 14 16 14 7 3 1 1 1 1 -0 -2 -3 -4 -4 -3 -2 -1 -2 -2 -2 1 4 6 8 7 7 9 13 16 13 7 2 2 1 0 -3 -1 1 2 2 2 1 1 0 0
2 1 2 9 7 7 8 9 9 12 14 11 9 14 18 15 3 0 6 15 17 12 8 12 18 16 11 4 1 -0 -0 -0 -1 -3 -4 -5 -4 -3 -3 -2 -2 -3 -3 0 4 7 9 10 8 10 12 16 13 8 3 1 1 0 -1 -1 0 1 2 2 1 1 0 0 0
-2 -3 -3 -2 -1 -1 0 3 4 6 9 12 8 7 7 5 -1 -1 1 6 18 20 17 15 16 12 7 1 -1 -1 -2 -3 -4 -5 -5 -4 -3 -2 -2 -2 -3 -3 -1 3 7 9 9 8 7 8 9 10 6 3 0 -1 -1 -1 -1 -0 1 1 2 1 1 0 0 0 0
-4 -3 -3 -3 -3 -4 -4 -2 -2 -1 1 8 3 0 -0 2 -1 -1 -1 -0 7 12 14 11 10 7 3 -1 -2 -3 -3 -4 -4 -4 -3 -2 -1 -1 -1 -2 -2 -0 2 4 6 7 6 5 4 5 6 4 1 -1 -2 -3 -2 -1 -0 1 1 1 1 1 0 -0 -0 0 0
-3 -2 -2 -3 -4 -4 -3 -4 -4 -5 -4 -2 -2 -2 -1 1 -1 -2 -2 -2 -0 1 2 3 3 1 -2 -4 -3 -3 -3 -3 -2 -1 -1 -0 -0 -0 -1 -2 0 4 6 6 5 5 5 4 4 4 4 2 -2 -4 -4 -3 -1 -0 0 1 1 1 0 -0 -0 -0 0 1 1
-2 -2 -3 -4 -4 -4 -4 -5 -6 -6 -6 -5 -3 -2 -1 -2 -3 -4 -4 -2 -2 -2 -2 -2 -2 -3 -4 -3 -2 -2 -1 -1 -0 0 0 0 0 -0 -1 -0 5 9 10 8 6 6 5 4 3 3 2 -1 -5 -6 -5 -3 -1 -0 0 0 0 -0 -0 -0 0 1 1 2 2
-1 -0 -1 -3 -4 -4 -4 -5 -5 -4 -4 -4 -3 -2 -2 -4 -4 -4 -3 -2 -2 -2 -3 -4 -4 -4 -3 -2 -1 -0 -0 -0 0 0 0 -0 0 0 1 4 10 12 11 9 6 5 4 2 1 0 -1 -4 -6 -6 -5 -3 -1 -1 -0 -1 -1 -0 0 2 2 2 3 3 3
3 4 5 -1 -1 -2 -2 -3 -3 -2 -2 -2 -2 -2 -2 -3 -3 -2 -2 -2 -3 -4 -5 -5 -4 -3 -1 0 1 0 -0 -1 -1 -1 -0 1 1 2 3 6 8 7 6 5 4 4 2 0 -1 -1 -2 -4 -5 -5 -4 -3 -2 -0 0 0 1 2 3 4 4 3 3 3 3
1 6 7 0 -0 -0 -0 -1 -1 -1 -1 -1 -1 -1 -2 -2 -2 -3 -3 -4 -4 -5 -5 -4 -3 -1 1 1 1 -0 -1 -1 0 2 3 4 2 2 1 3 3 2 2 2 3 2 1 -1 -2 -2 -2 -3 -4 -4 -4 -4 -1 1 3 3 3 4 4 4 3 2 2 2 2
-1 2 4 2 -0 -0 1 1 0 -0 -0 -0 -0 -1 -1 -2 -2 -3 -3 -4 -4 -4 -3 -2 -0 1 2 1 1 0 1 3 6 6 5 3 2 1 1 1 2 2 2 2 2 2 0 -2 -2 -2 -2 -3 -4 -5 -5 -3 2 4 4 3 4 4 4 3 2 1 1 2 2
-3 -1 0 1 0 -0 -1 -0 -0 -1 -1 -1 -1 -1 -2 -2 -2 -3 -3 -3 -3 -2 -1 -0 0 1 1 1 1 4 7 10 9 6 2 1 3 4 4 3 2 2 2 2 2 1 0 -1 -2 -2 -2 -4 -5 -5 -3 2 4 4 4 3 3 2 2 2 1 1 1 2 2
-3 -3 -1 -0 1 1 1 -1 -0 -1 -1 -2 -2 -2 -2 -2 -2 -2 -2 -2 -2 -1 -0 -0 -0 1 2 5 5 8 10 12 8 6 5 6 6 6 4 4 3 3 2 2 1 1 0 -1 -2 -3 -4 -5 -5 -2 2 5 5 4 2 2 2 1 1 1 1 1 2 2 2
-3 -3 -3 -3 -3 -2 -2 -1 -2 -2 -2 -2 -2 -2 -1 -1 -1 -1 -1 -1 -1 -0 -0 -1 -1 3 9 13 8 6 7 7 9 10 9 9 7 5 3 3 3 3 2 1 -0 -1 -1 -2 -3 -4 -4 -3 -1 2 5 5 3 2 1 1 1 1 1 1 1 2 2 2 2
-2 -4 -3 -2 -2 -1 -1 -1 -2 -2 -2 -1 -1 -1 -0 -0 0 0 -0 -0 -0 -0 -0 -0 0 8 16 16 8 4 3 1 4 6 6 5 4 3 2 2 1 0 -0 -0 -0 -1 -2 -4 -4 -3 -1 1 3 4 4 2 1 1 1 1 1 1 1 1 2 2 2 2 2
0 1 0 -1 -1 -0 0 -0 -0 -1 -1 -0 0 1 1 1 1 1 1 1 1 1 1 2 4 9 14 12 5 2 2 1 0 0 1 2 2 1 0 -2 -3 -4 -5 -5 1 2 0 -3 -2 -0 1 2 3 2 1 0 -0 -0 0 1 1 1 2 2 2 2 2 2 2
4 4 2 -1 -1 -1 -1 -1 -1 -1 -1 -0 1 1 1 1 0 1 1 1 1 2 4 6 7 8 8 6 2 1 3 3 3 3 2 1 -1 -2 -4 -5 -6 -8 -8 -6 -2 -1 -1 -1 0 1 2 2 1 0 -0 -1 -0 0 1 1 1 2 2 2 2 2 2 1 1
2 1 -1 -1 -2 -2 -2 -2 -1 -1 -1 -1 -0 -0 -0 -0 -1 -1 -0 1 5 9 11 11 10 8 7 5 4 4 4 5 5 4 2 0 -1 -2 -2 -4 -6 -6 -7 -6 -4 -2 -1 1 1 1 1 1 0 0 -0 -0 0 1 1 2 2 2 2 2 2 2 2 1 1
-1 -2 -2 -2 -2 -2 -1 -0 1 1 0 1 0 -0 -0 0 1 2 4 7 12 14 15 15 13 11 10 8 7 6 4 3 1 1 0 -0 -1 -1 -1 -2 -3 -3 -3 -3 -2 -0 1 1 1 1 1 1 1 1 1 1 1 1 2 2 2 2 2 2 2 2 1 1 1
-2 -2 -2 -1 -0 0 1 2 1 0 1 3 3 3 3 3 5 8 11 13 15 15 15 16 16 15 12 9 7 4 2 -2 -3 -3 -2 -1 -1 -1 -1 -1 -1 -1 -1 -1 -0 0 1 1 1 1 1 1 2 2 2 2 2 2 2 2 2 2 2 2 2 1 1 1 0
-2 -2 -1 -1 -0 -0 -0 -0 -1 -1 -1 -0 1 2 3 4 6 8 11 14 15 15 15 15 14 12 10 6 3 -0 -3 -5 -5 -4 -3 -2 -2 -2 -1 -1 -1 -1 -1 -1 -0 0 1 1 1 1 1 1 1 2 2 2 2 2 2 2 2 2 2 1 1 1 0 -0 -0
-1 -1 -1 -0 -0 -1 -2 -2 -2 -2 -1 -0 2 4 6 6 5 4 5 6 7 7 7 7 6 5 3 0 -3 -5 -6 -5 -4 -3 -2 -2 -2 -1 -1 -1 -1 -1 -1 -1 -0 0 1 1 1 1 1 1 1 1 1 1 1 1 1 1 1 1 1 1 1 0 -0 -0 -0
-1 1 3 6 4 3 4 6 4 3 3 4 4 6 6 4 0 -2 -3 -3 -2 -1 -0 -0 -1 -2 -4 -6 -6 -6 -5 -3 -1 -1 -0 -0 -0 -0 -0 -0 -0 -0 0 0 0 1 1 1 1 1 1 1 2 2 2 1 1 1 1 1 1 1 1 1 0 0 0 0 0
-2 2 6 8 5 5 8 13 10 7 4 3 1 -0 -1 -3 -4 -6 -6 -8 -6 -2 0 -0 -3 -5 -6 -7 -7 -5 -3 -1 -0 0 1 1 1 1 1 1 1 0 -0 0 1 1 1 1 1 1 2 3 3 3 2 1 1 1 1 1 1 1 1 1 1 1 1 1 1
-2 1 4 5 4 4 6 10 8 5 2 1 -2 -4 -5 -5 -6 -6 -8 -9 -6 -1 2 1 -1 -2 -3 -4 -3 -2 -0 1 1 2 1 1 1 2 1 0 0 0 -0 -0 0 1 1 1 1 2 2 2 2 2 2 1 1 1 1 1 1 1 1 1 1 1 1 1 1
1 3 5 6 5 5 5 6 2 1 1 2 0 -1 -2 -3 -4 -5 -6 -6 -3 -1 1 2 1 1 1 1 1 1 1 1 4 4 4 2 1 1 1 -0 0 2 4 4 2 1 1 1 1 2 2 2 2 1 1 1 1 1 1 1 1 1 1 1 1 1 1 1 1
4 4 5 4 4 4 4 2 -2 -2 1 5 6 6 5 3 1 -1 -1 -0 1 1 1 1 2 3 4 5 4 3 2 1 3 3 3 2 2 1 1 1 0 1 2 3 2 1 0 1 1 1 1 1 1 1 0 0 1 1 1 1 1 1 1 1 1 1 1 1 1
2 2 2 2 2 2 1 -1 -4 -4 -0 3 5 7 9 8 5 3 2 2 2 2 2 1 1 3 5 7 6 4 3 2 2 1 1 1 1 1 1 1 0 -0 -1 -0 -0 0 0 0 0 0 -0 -0 0 1 1 2 2 2 1 1 1 1 1 1 1 1 1 1 1
Height
2979 2980 2981 2982 2983 2984 2986 2987 2988 2990 2992 2993 2995 2995 2995 2997 2999 3002 3004 3007 3010 3012 3013 3014 3014 3016 3018 3020 3022 3024 3026 3027 3029 3031 3032 3034 3036 3038 3040 3042 3043 3043 3044 3045 3046 3047 3047 3048 3049 3051 3053 3055 3056 3058 3060 3062 3063 3064 3064 3064 3065 3066 3067 3068 3070 3071 3072 3073 3074
2977 2978 2979 2980 2982 2983 2984 2986 2987 2988 2990 2992 2992 2993 2995 2997 2999 3001 3003 3005 3007 3009 3011 3013 3014 3015 3017 3018 3021 3022 3024 3026 3028 3030 3032 3033 3035 3037 3039 3041 3042 3042 3043 3044 3045 3046 3046 3047 3048 3050 3052 3053 3055 3057 3059 3061 3062 3063 3063 3062 3064 3065 3066 3067 3069 3070 3071 3072 3072
2976 2977 2977 2979 2980 2982 2983 2984 2986 2987 2989 2990 2991 2992 2994 2997 2998 3000 3002 3004 3006 3007 3009 3011 3013 3015 3016 3017 3019 3022 3023 3025 3027 3028 3030 3032 3034 3037 3038 3039 3041 3042 3042 3043 3044 3045 3045 3047 3048 3049 3051 3052 3053 3055 3057 3059 3061 3062 3062 3061 3062 3063 3065 3066 3068 3069 3070 3070 3071
2975 2975 2976 2977 2979 2980 2982 2983 2985 2986 2988 2989 2990 2992 2994 2996 2997 2999 3002 3004 3006 3007 3008 3009 3012 3013 3014 3016 3018 3020 3022 3024 3026 3027 3029 3031 3033 3035 3037 3038 3039 3041 3042 3042 3043 3044 3045 3046 3047 3048 3049 3051 3053 3055 3057 3058 3060 3061 3061 3060 3061 3062 3064 3065 3067 3067 3068 3069 3069
2974 2974 2975 2976 2977 2979 2981 2982 2984 2985 2987 2988 2989 2991 2994 2996 2997 2999 3000 3002 3004 3007 3008 3009 3011 3012 3013 3014 3017 3019 3021 3022 3024 3026 3028 3030 3032 3034 3036 3037 3038 3040 3041 3042 3042 3043 3044 3045 3046 3047 3049 3051 3053 3054 3056 3057 3058 3059 3060 3059 3060 3061 3063 3064 3065 3066 3067 3067 3068
2973 2974 2974 2975 2977 2978 2980 2982 2983 2985 2986 2987 2988 2990 2993 2996 2997 2998 2999 3001 3002 3004 3006 3008 3009 3011 3012 3013 3015 3017 3019 3021 3023 3025 3027 3030 3032 3033 3035 3036 3037 3039 3040 3041 3042 3042 3043 3044 3045 3047 3049 3051 3052 3053 3055 3056 3057 3057 3058 3058 3059 3060 3062 3063 3064 3065 3065 3066 3067
2972 2973 2974 2975 2976 2977 2980 2982 2983 2985 2986 2986 2987 2990 2992 2995 2997 2997 2999 3000 3002 3003 3005 3007 3008 3010 3011 3013 3014 3016 3018 3020 3022 3024 3027 3029 3031 3032 3034 3035 3037 3038 3039 3040 3041 3041 3042 3043 3044 3046 3048 3049 3051 3052 3054 3055 3056 3056 3057 3057 3057 3058 3060 3062 3062 3063 3064 3064 3065
2972 2972 2973 2974 2976 2978 2980 2982 2983 2984 2985 2985 2987 2989 2992 2995 2996 2997 2998 3000 3001 3002 3003 3006 3007 3009 3011 3013 3013 3015 3017 3019 3021 3024 3026 3028 3030 3031 3032 3034 3035 3037 3038 3039 3040 3040 3041 3042 3043 3045 3047 3048 3050 3051 3053 3054 3055 3056 3056 3056 3056 3057 3059 3061 3061 3062 3062 3063 3063
2972 2972 2973 2975 2977 2978 2980 2982 2983 2984 2985 2986 2987 2990 2992 2994 2995 2996 2997 2999 3000 3002 3003 3005 3007 3009 3011 3013 3013 3015 3017 3019 3021 3023 3025 3027 3028 3030 3031 3032 3034 3036 3037 3038 3039 3040 3041 3042 3043 3044 3046 3048 3049 3051 3052 3052 3054 3055 3056 3056 3056 3057 3058 3059 3060 3060 3061 3061 3062
2972 2973 2975 2976 2977 2979 2981 2982 2984 2985 2986 2987 2988 2990 2992 2993 2994 2995 2997 2999 3001 3002 3004 3005 3006 3008 3010 3012 3013 3015 3017 3019 3021 3023 3024 3026 3027 3028 3030 3032 3033 3034 3036 3037 3037 3039 3040 3042 3042 3044 3046 3047 3048 3050 3051 3052 3053 3054 3054 3054 3055 3056 3057 3058 3058 3058 3059 3060 3061
2973 2975 2976 2977 2978 2980 2982 2983 2984 2986 2987 2988 2989 2990 2991 2992 2993 2995 2997 2999 3001 3002 3004 3005 3006 3008 3010 3012 3014 3015 3017 3019 3021 3022 3023 3024 3026 3027 3029 3031 3032 3033 3035 3036 3036 3038 3040 3041 3042 3043 3045 3046 3047 3048 3050 3051 3052 3052 3053 3053 3054 3055 3056 3056 3057 3057 3058 3059 3060
2975 2976 2977 2978 2979 2980 2982 2983 2985 2986 2987 2989 2990 2991 2992 2993 2993 2995 2997 2998 3000 3002 3003 3005 3006 3008 3010 3012 3013 3015 3017 3018 3019 3021 3022 3023 3024 3026 3028 3030 3031 3032 3034 3035 3036 3037 3039 3041 3042 3043 3044 3045 3046 3047 3049 3050 3051 3051 3052 3052 3053 3054 3055 3055 3055 3056 3057 3058 3059
2977 2978 2978 2979 2980 2981 2982 2983 2985 2986 2988 2989 2990 2991 2992 2993 2994 2995 2997 2998 3000 3002 3003 3005 3007 3008 3010 3012 3012 3014 3016 3017 3018 3019 3020 3022 3023 3025 3027 3029 3031 3032 3033 3034 3035 3037 3038 3039 3041 3042 3042 3044 3045 3047 3048 3048 3049 3050 3050 3051 3052 3053 3054 3054 3054 3055 3056 3057 3058
2979 2979 2979 2981 2982 2982 2982 2984 2985 2986 2987 2989 2990 2992 2992 2993 2994 2995 2997 2999 3000 3002 3004 3006 3007 3009 3010 3011 3012 3013 3015 3016 3017 3018 3019 3021 3023 3025 3027 3028 3030 3031 3032 3033 3035 3036 3037 3038 3039 3040 3042 3043 3045 3046 3047 3047 3047 3048 3049 3050 3052 3052 3052 3053 3053 3054 3055 3056 3057
2980 2980 2981 2982 2982 2982 2983 2985 2985 2986 2987 2989 2990 2991 2992 2993 2994 2996 2997 2999 3001 3002 3004 3006 3008 3009 3010 3010 3011 3012 3013 3015 3016 3017 3019 3021 3023 3024 3026 3027 3029 3030 3031 3032 3034 3036 3037 3038 3039 3040 3041 3042 3044 3044 3045 3045 3046 3047 3048 3049 3050 3051 3051 3052 3052 3053 3054 3055 3056
2982 2982 2982 2982 2982 2983 2984 2985 2985 2986 2987 2988 2989 2990 2992 2993 2995 2996 2997 2999 3001 3003 3005 3007 3008 3008 3009 3009 3010 3012 3013 3014 3016 3017 3019 3021 3023 3024 3026 3027 3028 3029 3030 3032 3034 3035 3036 3037 3038 3039 3040 3041 3042 3042 3043 3044 3045 3046 3047 3048 3049 3050 3050 3051 3052 3052 3053 3054 3055
2983 2983 2983 2983 2983 2984 2984 2985 2985 2986 2987 2988 2989 2991 2992 2993 2995 2997 2997 2998 3001 3003 3005 3006 3007 3007 3007 3008 3010 3011 3013 3014 3016 3018 3020 3021 3022 3024 3025 3026 3027 3028 3030 3032 3033 3034 3035 3036 3037 3038 3038 3039 3040 3041 3041 3042 3043 3045 3046 3047 3048 3048 3049 3050 3051 3052 3052 3053 3054
2984 2984 2984 2985 2985 2986 2986 2986 2987 2987 2988 2989 2990 2992 2993 2994 2996 2997 2998 2999 3000 3001 3003 3005 3006 3007 3007 3008 3010 3012 3013 3015 3017 3018 3020 3021 3022 3024 3025 3026 3027 3028 3030 3031 3032 3034 3035 3035 3036 3036 3036 3037 3038 3039 3040 3041 3043 3044 3045 3046 3047 3047 3048 3049 3050 3051 3052 3052 3053
2985 2985 2985 2986 2986 2987 2987 2987 2988 2988 2989 2990 2991 2992 2994 2995 2996 2997 2998 2999 3000 3001 3002 3004 3005 3007 3008 3009 3011 3012 3014 3015 3017 3018 3019 3021 3022 3023 3025 3026 3027 3028 3030 3031 3032 3033 3034 3034 3034 3035 3036 3037 3037 3038 3040 3041 3042 3043 3044 3045 3046 3046 3047 3048 3049 3050 3051 3052 3052
2985 2985 2986 2986 2986 2987 2987 2988 2988 2989 2990 2991 2992 2993 2994 2995 2996 2997 2998 2999 3001 3002 3003 3005 3006 3007 3008 3010 3011 3012 3014 3015 3017 3018 3019 3021 3022 3023 3024 3025 3027 3028 3029 3031 3032 3032 3033 3033 3034 3034 3035 3036 3037 3039 3040 3041 3042 3042 3043 3044 3044 3045 3046 3047 3048 3049 3050 3051 3052
2986 2986 2986 2986 2986 2987 2987 2988 2989 2990 2991 2992 2993 2994 2995 2997 2997 2998 2999 3000 3001 3002 3004 3005 3006 3007 3009 3010 3012 3013 3014 3015 3017 3018 3019 3021 3022 3023 3024 3025 3026 3027 3029 3030 3031 3032 3032 3033 3034 3034 3035 3037 3038 3039 3040 3040 3041 3042 3042 3042 3043 3044 3045 3047 3048 3049 3050 3051 3052
2986 2987 2987 2987 2987 2987 2987 2988 2989 2990 2991 2992 2993 2995 2996 2997 2998 2999 2999 3000 3002 3003 3004 3005 3007 3008 3009 3010 3012 3013 3014 3016 3017 3018 3019 3020 3022 3022 3023 3024 3025 3027 3028 3029 3030 3031 3032 3033 3034 3035 3036 3037 3037 3038 3039 3039 3040 3040 3041 3042 3042 3044 3045 3046 3047 3048 3049 3051 3052
2987 2987 2987 2987 2987 2987 2988 2988 2989 2990 2991 2992 2993 2995 2996 2997 2998 2999 3000 3001 3002 3003 3004 3005 3007 3008 3009 3011 3012 3013 3014 3016 3017 3017 3019 3020 3021 3022 3022 3023 3024 3026 3027 3028 3029 3030 3031 3032 3033 3035 3036 3037 3037 3037 3038 3038 3039 3040 3041 3041 3042 3043 3045 3046 3047 3048 3049 3050 3051
2988 2988 2988 2988 2988 2988 2989 2989 2990 2991 2992 2993 2994 2995 2996 2997 2998 2999 3000 3001 3002 3003 3004 3006 3007 3008 3010 3011 3012 3013 3014 3015 3016 3017 3018 3019 3020 3021 3022 3023 3024 3025 3026 3027 3029 3030 3031 3032 3033 3035 3035 3036 3037 3037 3037 3038 3039 3040 3040 3041 3042 3043 3044 3045 3046 3047 3048 3049 3050
2989 2989 2989 2990 2989 2989 2990 2990 2991 2992 2993 2994 2995 2995 2996 2997 2998 2999 3001 3002 3003 3004 3005 3006 3007 3008 3010 3011 3012 3012 3014 3015 3016 3017 3017 3018 3019 3021 3022 3023 3024 3025 3026 3027 3028 3029 3031 3032 3033 3034 3035 3036 3036 3036 3037 3038 3039 3039 3040 3041 3042 3042 3043 3044 3045 3046 3047 3049 3050
2990 2990 2990 2991 2991 2991 2991 2992 2992 2993 2994 2995 2996 2996 2997 2998 2999 3000 3001 3002 3003 3004 3006 3007 3008 3009 3010 3010 3011 3012 3013 3015 3015 3017 3018 3019 3020 3021 3022 3023 3024 3025 3026 3027 3028 3029 3031 3032 3032 3033 3034 3035 3035 3036 3037 3038 3038 3039 3039 3040 3041 3042 3043 3044 3045 3046 3047 3048 3050
2992 2992 2992 2992 2992 2992 2992 2993 2994 2995 2995 2996 2996 2997 2998 2999 3000 3001 3002 3003 3004 3005 3006 3007 3008 3009 3010 3010 3010 3012 3013 3014 3015 3017 3018 3019 3020 3021 3022 3022 3023 3024 3025 3026 3027 3029 3030 3031 3032 3033 3033 3034 3035 3036 3037 3037 3038 3038 3039 3040 3041 3042 3042 3044 3045 3046 3047 3048 3050
2993 2993 2993 2993 2994 2994 2994 2995 2995 2996 2996 2997 2997 2998 2999 2999 3000 3001 3002 3003 3004 3006 3007 3007 3009 3010 3010 3011 3011 3012 3013 3014 3015 3016 3017 3018 3020 3021 3022 3022 3022 3023 3024 3026 3027 3028 3029 3031 3031 3032 3033 3034 3035 3036 3036 3037 3037 3037 3038 3039 3040 3042 3042 3044 3045 3046 3047 3048 3050
2994 2994 2995 2995 2995 2996 2996 2997 2997 2997 2997 2998 2998 2999 3000 3000 3001 3002 3003 3004 3005 3006 3007 3008 3009 3011 3011 3012 3012 3012 3013 3014 3015 3016 3017 3019 3020 3021 3021 3022 3022 3023 3024 3026 3027 3028 3030 3030 3031 3032 3033 3034 3034 3035 3035 3036 3037 3037 3038 3039 3040 3042 3043 3044 3045 3046 3047 3048 3050
2995 2996 2996 2996 2997 2997 2997 2997 2998 2998 2998 2999 2999 3000 3001 3001 3002 3003 3004 3005 3006 3007 3008 3009 3010 3011 3012 3012 3012 3013 3014 3015 3016 3017 3019 3020 3020 3021 3022 3022 3023 3024 3025 3026 3027 3028 3029 3030 3031 3032 3032 3033 3034 3034 3035 3035 3036 3037 3038 3040 3041 3042 3043 3044 3045 3047 3047 3049 3050
2997 2997 2997 2997 2997 2998 2998 2998 2999 2999 2999 3000 3000 3001 3001 3002 3003 3004 3004 3006 3007 3007 3008 3009 3009 3010 3011 3011 3012 3013 3014 3016 3017 3018 3019 3020 3020 3021 3022 3023 3024 3025 3026 3027 3027 3028 3029 3030 3031 3032 3032 3033 3033 3034 3035 3036 3037 3038 3039 3040 3041 3042 3043 3045 3046 3047 3048 3049 3050
2997 2998 2998 2998 2998 2998 2999 2999 2999 3000 3001 3001 3002 3002 3003 3003 3004 3005 3006 3006 3007 3007 3007 3007 3008 3009 3010 3011 3012 3013 3015 3016 3017 3017 3018 3019 3020 3021 3022 3023 3024 3025 3026 3027 3027 3028 3029 3030 3031 3032 3032 3033 3034 3034 3035 3036 3037 3038 3039 3040 3042 3043 3044 3045 3046 3047 3048 3048 3049
2999 2999 2999 2999 2999 2999 3000 3000 3001 3001 3002 3002 3003 3003 3004 3005 3005 3005 3005 3005 3005 3005 3006 3007 3008 3009 3010 3011 3012 3013 3015 3015 3016 3017 3018 3019 3020 3022 3023 3024 3025 3026 3026 3027 3028 3028 3029 3030 3031 3032 3032 3033 3034 3035 3036 3037 3038 3039 3040 3041 3042 3043 3044 3045 3046 3047 3047 3048 3049
2999 2999 2999 3000 3000 3000 3001 3001 3002 3002 3002 3003 3003 3003 3004 3004 3004 3004 3004 3004 3005 3006 3007 3007 3008 3009 3010 3011 3012 3013 3014 3015 3016 3017 3018 3020 3021 3022 3023 3024 3025 3026 3027 3027 3028 3029 3029 3030 3031 3032 3032 3033 3034 3035 3036 3037 3038 3039 3040 3042 3042 3043 3044 3045 3046 3047 3047 3048 3049
3000 3000 3001 3001 3001 3001 3001 3002 3002 3002 3002 3002 3002 3003 3003 3004 3004 3004 3005 3005 3006 3006 3007 3007 3008 3010 3011 3012 3012 3013 3014 3016 3017 3018 3019 3021 3022 3023 3024 3025 3026 3027 3027 3028 3028 3029 3030 3031 3031 3032 3033 3034 3035 3036 3037 3038 3039 3040 3041 3042 3042 3043 3044 3045 3046 3047 3047 3047 3048
3001 3002 3002 3003 3003 3003 3003 3003 3003 3002 3002 3003 3002 3003 3004 3004 3005 3005 3005 3006 3006 3007 3008 3009 3010 3011 3012 3012 3013 3014 3016 3017 3018 3019 3021 3022 3022 3023 3024 3025 3026 3027 3028 3028 3029 3030 3030 3031 3032 3032 3033 3034 3035 3036 3037 3038 3039 3040 3041 3042 3042 3043 3044 3045 3045 3046 3047 3047 3047
3002 3002 3003 3003 3003 3003 3004 3004 3003 3003 3004 3004 3004 3004 3005 3005 3005 3006 3006 3006 3007 3008 3010 3011 3011 3012 3013 3014 3015 3016 3017 3018 3019 3021 3022 3022 3023 3024 3025 3026 3027 3027 3028 3029 3030 3030 3031 3031 3032 3033 3034 3035 3036 3037 3038 3039 3039 3040 3041 3042 3042 3043 3044 3044 3045 3045 3046 3046 3046
3002 3002 3002 3002 3002 3003 3003 3003 3004 3004 3004 3005 3005 3006 3006 3006 3007 3007 3007 3007 3008 3010 3011 3012 3013 3014 3015 3016 3017 3017 3019 3020 3021 3022 3022 3023 3024 3024 3025 3026 3027 3028 3029 3029 3030 3031 3032 3032 3033 3034 3035 3036 3036 3037 3038 3038 3039 3040 3041 3041 3042 3042 3043 3044 3044 3045 3045 3045 3046
3002 3002 3002 3002 3002 3003 3003 3003 3004 3005 3005 3006 3007 3007 3007 3008 3008 3008 3009 3009 3010 3011 3012 3013 3014 3015 3016 3017 3018 3019 3020 3021 3022 3023 3023 3024 3024 3025 3026 3026 3027 3029 3030 3030 3031 3032 3032 3033 3033 3034 3035 3036 3036 3037 3038 3038 3039 3040 3041 3041 3042 3042 3042 3043 3043 3044 3044 3044 3045
3003 3003 3003 3003 3003 3003 3003 3004 3005 3005 3006 3007 3008 3008 3009 3009 3010 3010 3011 3012 3012 3013 3014 3015 3016 3017 3017 3018 3019 3020 3021 3022 3022 3023 3024 3025 3025 3026 3026 3027 3028 3029 3030 3031 3032 3032 3032 3033 3034 3034 3035 3036 3036 3037 3037 3038 3039 3040 3040 3041 3041 3041 3042 3042 3042 3043 3043 3043 3044
3004 3004 3004 3004 3004 3004 3004 3005 3005 3006 3007 3008 3009 3010 3011 3011 3011 3012 3013 3013 3014 3014 3015 3016 3017 3017 3018 3019 3020 3021 3022 3022 3023 3024 3024 3025 3026 3027 3027 3028 3029 3029 3030 3031 3032 3032 3032 3033 3034 3034 3035 3036 3036 3037 3038 3038 3039 3039 3040 3040 3040 3041 3041 3041 3042 3042 3042 3043 3043